Погода в Мурманске

Погода в Мурманске : погода сейчас, прогноз погоды и архив. Всё, что Вы хотите узнать о погоде в Мурманске!

Поиск расширенной информации на нашем сайте:

Другие новости

Новости СМИ2

Главная страница сайта

Новости сайта

03.07.2017

Напоминаем, что на нашем специализированном сайте Метеоцентр.Азия вы можете получить высокодетализированные автоматические прогнозы погоды по пунктам России, СНГ и мира в авиационном формате (включающие направление и скорость ветра, видимость, явления погоды, количество и форму облачности, нижнюю и верхнюю границу облачности).


Погода в Мурманске - сегодня

Время (UTC), дата Ветер
(°,м/с) 
Видим.   Явления Облачность Т
(°С)
Тd
(°С)
f(%) Тe
(°С)
Pmin
(гПа)
dP
(гПа)
Po
(мм)
O2
(г/м3)
Тmin Tmax R s Состояние
почвы
03 07.04.18 300 (СЗ) 6-10{12}  20000 м  в посл. час ливневой снег  9/8 300 м кучево-дожд., средняя, верхняя 
[Cb cap|Ac cuf|Ci fib]
-0.9 -3.2 84 -5  998.9  0.8  744  301  -0.9    0.6     
15 08.04.18 тихо ()   20000 м    1/1 600 м 
[Cu hum]
+1 -9.1 47 +1  1014.1  0.8  756  304           
21 08.04.18 210 (ЮЗ) 2-3  20000 м    3/0 верхняя 
[Ci fib]
-5.9 -8.6 81 -7  1014.2  -0.4  756  312           
09 09.04.18 120 (ЮВ) 2-5  20000 м    9/1 600 м верхняя 
[Sc|Ci fib]
-1.2 -6.3 68 -2  1010.4  -1.6  753  305           
18 09.04.18 070 (В) 3-7{13}  20000 м    10/6 600 м кучево-дожд., средняя 
[Cb cap|Ac As]
-3.3 -5.7 83 -5  1009.1  1.3  752  307    -0.9       
03 10.04.18 020 (С) 6-8{11}  20000 м  слаб. ливневой снег  9/8 600 м кучево-дожд., средняя 
[Cb cap|Ac trans]
-2 -5.8 75 -6  1016.2  2.8  757  308  -3.5    0.8     
03 11.04.18 270 (З) 4-9{12}  20000 м    9/8 600 м средняя 
[Sc|Ac lent]
+0.6 -3.5 74 -2  1019  0.3  759  306  -0.4         
21 11.04.18 240 (ЮЗ) 5-7  20000 м    9/3 600 м средняя 
[Sc|Ac As]
+1.2 -3.7 70 -2  1019.9  -0.5  760  305           
03 12.04.18 230 (ЮЗ) 6-10{11}  4000 м  слаб. снег  10/6 300 м средняя 
[Frnb|As op]
+0.8 -0.8 89 -3  1019.2  -0.5  760  305  -0.1    0.4     
18 12.04.18 320 (СЗ) 3-4{10}  20000 м  {ливн. осадки}  10/10 300 м кучево-дожд. 
[Cb cap]
+2.4 -0.5 81 +1  1025  1.6  764  305    +3.9  0.5     
21 12.04.18 310 (СЗ) 1-1  20000 м    9/9 300 м кучево-дожд. 
[Cb cap]
+1.5 +0.6 94 +2  1026  765  306           
09 13.04.18 220 (ЮЗ) 4-8  20000 м    9/3 600 м средняя 
[Sc|Ac As]
+5.4 -2.8 55 +4  1025.3  -1.3  764  302           
09 14.04.18 тихо ()   20000 м    9/0 средняя, верхняя 
[Ac trans|Cc]
+5.7 -5.6 44 +6  1015.3  -0.2  757  299           
18 14.04.18 350 (С) 6-8{10}  10 км  слаб. ливневой дождь  9/9 600 м кучево-дожд. 
[Cb cap]
+2 +0.2 88 -1  1020.4  1.8  761  304    +6.7  0.0     
09 15.04.18 300 (СЗ) 2-4  20000 м    9/8 600 м средняя, верхняя 
[Sc|Ac trans|Ci fib]
+1.8 -5.8 57 +1  1024.8  -0.3  764  306           
21 15.04.18 200 (Ю) 1-2  20000 м    8/0 верхняя 
[Ci fib]
-1.5 -4.1 82 -1  1021.3  -0.4  761  309           
09 16.04.18 020 (С) 2-3  20000 м    9/3 600 м средняя, верхняя 
[Sc|Ac trans|Ci fib]
+1.8 -3.4 68 +1  1017.9  -1.3  759  304           
09 17.04.18 360 (С) 3-4  20000 м    1/0 верхняя 
[Ci fib]
+4.3 -1.8 64 +3  1018.6  0.3  759  301           
15 17.04.18 360 (С) 2-4  20000 м    ясно 
+4.6 -2 62 +4  1017.6  -0.8  758  301           
21 17.04.18 200 (Ю) 1-1  20000 м    ясно 
-0.4 -2.4 86 1017.7  758  306           
09 18.04.18 200 (Ю) 2-3  20000 м    10/8 600 м средняя 
[Cu med, cong|Ac und]
+3.7 -1.7 68 +3  1017.1  758  302           
03 19.04.18 350 (С) 5-7  10 км  слаб. крупа{ливн. осадки}  10/10 300 м кучево-дожд. 
[Cb cap]
-0.3 -2 88 -3  1018.7  0.5  759  307  -0.4    0.0     
18 19.04.18 330 (СЗ) 5-8{12}  20000 м  осадки на расстоянии{ливн. осадки}  9/8 600 м кучево-дожд., средняя 
[Cb cap|Ac As]
-1.7 -6.9 68 -5  1024.1  0.1  763  310    +0.2  0.2     
21 20.04.18 150 (ЮВ) 1-2  20000 м    3/3 600 м 
[Sc]
-4.1 -10.1 63 -4  1009.7  -1.4  752  309           
00 21.04.18 тихо ()   20000 м    1/1 600 м 
[Sc]
-6.3 -9.1 80 -6  1008.7  -1  752  311           
Время (UTC), дата Ветер
(°,м/с) 
Видим.   Явления Облачность Т
(°С)
Тd
(°С)
f(%) Тe
(°С)
Pmin
(гПа)
dP
(гПа)
Po
(мм)
O2
(г/м3)
Тmin Tmax R s Состояние
почвы

Для получения пояснительной информации подведите курсор к названию столбца.

ПОГОДА в Мурманске - архив

Всё, что Вы хотите узнать о погоде в Мурманске - удобно и подробно!

Выберите нужную дату (начиная с 1 января 2015* года) и нажмите кнопку "Найти".
Будут отображены архивные сводки погоды по пункту Мурманск, начиная с указанной даты.


Отображать данные в формате CSV (для использования в таблицах Excel)


Внимание! Наш архив погоды предназначен исключительно для личного некоммерческого использования в познавательных целях. Если Вам необходимы официальные справки о состоянии погоды (для производственных, юридических, коммерческих и т.п. целей), обращайтесь в органы Росгидромета.

*Примечание: данная дата относится к архиву по метеостанциям СССР (Россия, СНГ, Балтия).
Архив по метеостанциям Зарубежной Европы и Азии (кроме Китая) хранится 10 дней, по другим регионам земного шара (Китай, Африка, Америка, Австралия, Океания) - 1 день.

Мурманск - район местоположения метеостанции


Название, широта, долгота, высота метеостанции:
Мурманск (город) 69°ш. 33.1°д. 51 м над ур. моря [Российская Федерация]

Дополнительная информация

В oтличие oт бoльшинства пoгoдных сайтoв мы публикуем пoдрoбную метеoинфoрмацию в детальнoм прoфессиoнальнoм фoрмате.

Характеристики температуры и влажнoсти вoздуха измеряются на высoте 2 м в тени вдали oт зданий и деревьев.
Скoрoсть ветра измеряется на высoте 10 м (на урoвне рoста челoвека скoрoсть ветра ниже в 1.5-2 раза). Если метеoстанция нахoдится в гoрoде или в лесу, тo скoрoсть ветра занижена на 2-4 м/с пo сравнению с oткрытым местoм. Скoрoсть ветра над акватoриями крупных рек и oзёр, а также на вершинах хoлмoв на 2-5 м/с выше, чем в oбычных услoвиях.
Атмoсфернoе давление в разных тoчках местнoсти мoжет значительнo oтличаться oт давления на метеoстанции, в зависимoсти oт услoвий рельефа (при пoдъёме на 10 м давление пoнижается примернo на 1 мм рт.ст.).